Time,TemperatureF,DewpointF,PressureIn,WindDirection,WindDirectionDegrees,WindSpeedMPH,WindSpeedGustMPH,Humidity,HourlyPrecipIn,Conditions,Clouds,dailyrainin,SoftwareType,DateUTC
2013-04-06 02:01:00,45.0,43.9,30.12,WNW,288,0.0,1.0,96,0.00,,---,0.00,VWS V14.01,2013-04-06 07:01:00,
2013-04-06 02:06:00,44.9,43.8,30.12,WNW,288,0.0,1.0,96,0.00,,---,0.00,VWS V14.01,2013-04-06 07:06:00,
2013-04-06 02:11:00,44.8,43.7,30.12,WNW,288,0.0,0.0,96,0.00,,---,0.00,VWS V14.01,2013-04-06 07:11:00,
2013-04-06 02:16:00,44.7,43.6,30.12,WNW,288,0.0,0.0,96,0.00,,---,0.00,VWS V14.01,2013-04-06 07:16:00,
2013-04-06 02:21:00,44.6,43.5,30.12,WNW,288,0.0,0.0,96,0.00,,---,0.00,VWS V14.01,2013-04-06 07:21:00,
2013-04-06 03:28:00,43.1,42.0,30.10,WNW,288,0.0,1.0,96,0.00,,---,0.00,VWS V14.01,2013-04-06 08:28:00,
2013-04-06 03:33:00,42.9,41.8,30.10,WNW,288,0.0,1.0,96,0.00,,---,0.00,VWS V14.01,2013-04-06 08:33:00,
2013-04-06 03:38:00,42.8,41.7,30.11,WNW,288,0.0,1.0,96,0.00,,---,0.00,VWS V14.01,2013-04-06 08:38:00,
2013-04-06 03:43:00,42.9,41.8,30.10,WNW,288,0.0,1.0,96,0.00,,---,0.00,VWS V14.01,2013-04-06 08:43:00,
2013-04-06 03:48:00,43.0,41.9,30.10,WNW,288,0.0,1.0,96,0.00,,---,0.00,VWS V14.01,2013-04-06 08:48:00,
2013-04-06 03:53:00,42.9,41.8,30.10,WNW,288,0.0,1.0,96,0.00,,---,0.00,VWS V14.01,2013-04-06 08:53:00,
2013-04-06 03:58:00,42.9,41.8,30.10,WNW,288,0.0,1.0,96,0.00,,---,0.00,VWS V14.01,2013-04-06 08:58:00,
2013-04-06 04:19:00,42.7,41.6,30.09,WNW,288,0.0,0.0,96,0.00,,---,0.00,VWS V14.01,2013-04-06 09:19:00,
2013-04-06 04:24:00,42.6,41.5,30.09,WNW,288,0.0,0.0,96,0.00,,---,0.00,VWS V14.01,2013-04-06 09:24:00,
2013-04-06 04:29:00,42.6,41.5,30.09,WNW,288,0.0,0.0,96,0.00,,---,0.00,VWS V14.01,2013-04-06 09:29:00,
2013-04-06 04:34:00,42.6,41.5,30.09,WNW,288,0.0,0.0,96,0.00,,---,0.00,VWS V14.01,2013-04-06 09:34:00,
2013-04-06 04:36:00,42.7,41.6,30.09,WNW,288,0.0,1.0,96,0.00,,---,0.00,VWS V14.01,2013-04-06 09:36:00,
2013-04-06 04:44:00,42.7,41.6,30.09,WNW,288,0.0,1.0,96,0.00,,---,0.00,VWS V14.01,2013-04-06 09:44:00,
2013-04-06 04:49:00,42.6,41.5,30.08,WNW,288,0.0,1.0,96,0.00,,---,0.00,VWS V14.01,2013-04-06 09:49:00,
2013-04-06 04:55:00,42.6,41.5,30.09,WNW,288,0.0,1.0,96,0.00,,---,0.00,VWS V14.01,2013-04-06 09:55:00,
2013-04-06 05:05:00,42.3,41.5,30.09,WNW,288,0.0,1.0,97,0.00,,---,0.00,VWS V14.01,2013-04-06 10:05:00,
2013-04-06 05:06:00,42.3,41.5,30.09,WNW,288,0.0,1.0,97,0.00,,---,0.00,VWS V14.01,2013-04-06 10:06:00,
2013-04-06 05:10:00,42.5,41.7,30.09,WNW,288,0.0,0.0,97,0.00,,---,0.00,VWS V14.01,2013-04-06 10:10:00,
2013-04-06 05:15:00,42.5,41.7,30.09,WNW,288,0.0,0.0,97,0.00,,---,0.00,VWS V14.01,2013-04-06 10:15:00,
2013-04-06 05:20:00,42.5,41.7,30.08,WNW,288,0.0,0.0,97,0.00,,---,0.00,VWS V14.01,2013-04-06 10:20:00,
2013-04-06 05:25:00,42.5,41.7,30.08,WNW,288,0.0,0.0,97,0.00,,---,0.00,VWS V14.01,2013-04-06 10:25:00,
2013-04-06 05:30:00,42.5,41.7,30.08,WNW,288,0.0,0.0,97,0.00,,---,0.00,VWS V14.01,2013-04-06 10:30:00,
2013-04-06 05:35:00,42.4,41.6,30.08,WNW,288,0.0,0.0,97,0.00,,---,0.00,VWS V14.01,2013-04-06 10:35:00,
2013-04-06 05:36:00,42.3,41.5,30.08,WNW,288,0.0,0.0,97,0.00,,---,0.00,VWS V14.01,2013-04-06 10:36:00,
2013-04-06 05:40:00,42.2,41.1,30.09,WNW,288,0.0,0.0,96,0.00,,---,0.00,VWS V14.01,2013-04-06 10:40:00,
2013-04-06 05:45:00,42.1,41.0,30.09,WNW,288,0.0,0.0,96,0.00,,---,0.00,VWS V14.01,2013-04-06 10:45:00,
2013-04-06 05:50:00,42.3,41.5,30.08,WNW,288,0.0,0.0,97,0.00,,---,0.00,VWS V14.01,2013-04-06 10:50:00,
2013-04-06 05:55:00,42.4,41.6,30.08,WNW,288,0.0,0.0,97,0.00,,---,0.00,VWS V14.01,2013-04-06 10:55:00,
2013-04-06 06:00:00,42.4,41.6,30.08,WNW,288,0.0,0.0,97,0.00,,---,0.00,VWS V14.01,2013-04-06 11:00:00,
2013-04-06 06:05:00,42.3,41.5,30.08,WNW,288,0.0,0.0,97,0.00,,---,0.00,VWS V14.01,2013-04-06 11:05:00,
2013-04-06 06:06:00,42.4,41.6,30.08,WNW,288,0.0,0.0,97,0.00,,---,0.00,VWS V14.01,2013-04-06 11:06:00,
2013-04-06 06:10:00,42.3,41.5,30.08,WNW,288,0.0,0.0,97,0.00,,---,0.00,VWS V14.01,2013-04-06 11:10:00,
2013-04-06 06:15:00,42.3,41.5,30.08,WNW,288,0.0,0.0,97,0.00,,---,0.00,VWS V14.01,2013-04-06 11:15:00,
2013-04-06 06:20:00,42.3,41.5,30.08,WNW,288,0.0,0.0,97,0.00,,---,0.00,VWS V14.01,2013-04-06 11:20:00,
2013-04-06 06:25:00,42.3,41.5,30.08,WNW,288,0.0,0.0,97,0.00,,---,0.00,VWS V14.01,2013-04-06 11:25:00,
2013-04-06 06:30:00,42.4,41.6,30.08,WNW,288,0.0,0.0,97,0.00,,---,0.00,VWS V14.01,2013-04-06 11:30:00,
2013-04-06 06:35:00,42.3,41.5,30.09,WNW,288,0.0,0.0,97,0.00,,---,0.00,VWS V14.01,2013-04-06 11:35:00,
2013-04-06 06:36:00,42.3,41.5,30.09,WNW,288,0.0,0.0,97,0.00,,---,0.00,VWS V14.01,2013-04-06 11:36:00,
2013-04-06 06:45:00,42.1,41.3,30.10,WNW,288,0.0,0.0,97,0.00,,---,0.00,VWS V14.01,2013-04-06 11:45:00,
2013-04-06 06:50:00,42.1,41.3,30.09,WNW,288,0.0,0.0,97,0.00,,---,0.00,VWS V14.01,2013-04-06 11:50:00,
2013-04-06 06:55:00,42.4,41.6,30.10,SSE,164,0.0,0.0,97,0.00,,---,0.00,VWS V14.01,2013-04-06 11:55:00,
2013-04-06 07:00:00,42.4,41.6,30.09,SSE,164,0.0,2.0,97,0.00,,---,0.00,VWS V14.01,2013-04-06 12:00:00,
2013-04-06 07:05:00,42.6,41.8,30.09,SSE,160,0.0,2.0,97,0.00,,---,0.00,VWS V14.01,2013-04-06 12:05:00,
2013-04-06 07:06:00,42.6,41.8,30.09,SSE,160,0.0,2.0,97,0.00,,---,0.00,VWS V14.01,2013-04-06 12:06:00,
2013-04-06 07:10:00,42.5,41.7,30.09,SSE,160,0.0,0.0,97,0.00,,---,0.00,VWS V14.01,2013-04-06 12:10:00,
2013-04-06 07:16:00,42.5,41.7,30.10,SSE,160,0.0,1.0,97,0.00,,---,0.00,VWS V14.01,2013-04-06 12:16:00,
2013-04-06 07:21:00,42.8,42.0,30.10,SSE,160,0.0,1.0,97,0.00,,---,0.00,VWS V14.01,2013-04-06 12:21:00,
2013-04-06 07:26:00,43.2,42.4,30.10,SSE,160,0.0,1.0,97,0.00,,---,0.00,VWS V14.01,2013-04-06 12:26:00,
2013-04-06 07:31:00,43.5,42.7,30.10,SSE,160,0.0,1.0,97,0.00,,---,0.00,VWS V14.01,2013-04-06 12:31:00,
2013-04-06 07:36:00,43.9,43.1,30.10,SSE,148,1.0,1.0,97,0.00,,---,0.00,VWS V14.01,2013-04-06 12:36:00,
2013-04-06 07:41:00,44.1,43.3,30.09,WSW,253,0.0,1.0,97,0.00,,---,0.00,VWS V14.01,2013-04-06 12:41:00,
2013-04-06 07:46:00,44.7,43.9,30.10,East,82,0.0,1.0,97,0.00,,---,0.00,VWS V14.01,2013-04-06 12:46:00,
2013-04-06 07:56:00,45.9,45.1,30.10,East,82,0.0,1.0,97,0.00,,---,0.00,VWS V14.01,2013-04-06 12:56:00,
2013-04-06 08:06:00,47.1,46.3,30.10,South,171,0.0,1.0,97,0.00,,---,0.00,VWS V14.01,2013-04-06 13:06:00,
2013-04-06 08:11:00,47.8,47.0,30.10,South,171,0.0,0.0,97,0.00,,---,0.00,VWS V14.01,2013-04-06 13:11:00,
2013-04-06 08:16:00,48.4,47.6,30.10,South,171,0.0,0.0,97,0.00,,---,0.00,VWS V14.01,2013-04-06 13:16:00,
2013-04-06 08:21:00,48.6,47.8,30.10,South,171,0.0,0.0,97,0.00,,---,0.00,VWS V14.01,2013-04-06 13:21:00,
2013-04-06 08:26:00,49.0,48.2,30.11,South,171,0.0,0.0,97,0.00,,---,0.00,VWS V14.01,2013-04-06 13:26:00,
2013-04-06 08:31:00,49.7,48.9,30.10,SSW,209,0.0,1.0,97,0.00,,---,0.00,VWS V14.01,2013-04-06 13:31:00,
2013-04-06 08:36:00,50.1,49.3,30.11,SSW,209,0.0,2.0,97,0.00,,---,0.00,VWS V14.01,2013-04-06 13:36:00,
2013-04-06 08:42:00,50.9,49.8,30.11,SW,227,0.0,2.0,96,0.00,,---,0.00,VWS V14.01,2013-04-06 13:42:00,
2013-04-06 08:47:00,51.8,50.7,30.11,ESE,119,0.0,2.0,96,0.00,,---,0.00,VWS V14.01,2013-04-06 13:47:00,
2013-04-06 09:18:00,56.0,51.2,30.11,SW,224,2.0,4.0,84,0.00,,---,0.00,VWS V14.01,2013-04-06 14:18:00,
2013-04-06 09:23:00,56.7,51.9,30.11,WSW,239,3.0,4.0,84,0.00,,---,0.00,VWS V14.01,2013-04-06 14:23:00,
2013-04-06 09:28:00,57.3,51.2,30.11,SW,228,3.0,6.0,80,0.00,,---,0.00,VWS V14.01,2013-04-06 14:28:00,
2013-04-06 09:33:00,57.4,50.6,30.12,SW,235,2.0,7.0,78,0.00,,---,0.00,VWS V14.01,2013-04-06 14:33:00,
2013-04-06 09:36:00,58.1,52.6,30.12,WNW,283,0.0,7.0,82,0.00,,---,0.00,VWS V14.01,2013-04-06 14:36:00,
2013-04-06 09:38:00,58.5,52.0,30.12,West,279,2.0,7.0,79,0.00,,---,0.00,VWS V14.01,2013-04-06 14:38:00,
2013-04-06 09:43:00,59.2,52.0,30.12,WSW,248,1.0,7.0,77,0.00,,---,0.00,VWS V14.01,2013-04-06 14:43:00,
2013-04-06 09:48:00,60.2,51.9,30.12,East,91,0.0,7.0,74,0.00,,---,0.00,VWS V14.01,2013-04-06 14:48:00,
2013-04-06 09:53:00,60.2,52.3,30.12,West,263,0.0,7.0,75,0.00,,---,0.00,VWS V14.01,2013-04-06 14:53:00,
2013-04-06 09:58:00,61.1,52.8,30.12,SW,228,1.0,7.0,74,0.00,,---,0.00,VWS V14.01,2013-04-06 14:58:00,
2013-04-06 10:03:00,61.5,52.0,30.11,WNW,290,4.0,7.0,71,0.00,,---,0.00,VWS V14.01,2013-04-06 15:03:00,
2013-04-06 10:08:00,62.3,52.8,30.12,East,85,2.0,5.0,71,0.00,,---,0.00,VWS V14.01,2013-04-06 15:08:00,
2013-04-06 10:13:00,63.4,53.5,30.12,East,101,2.0,5.0,70,0.00,,---,0.00,VWS V14.01,2013-04-06 15:13:00,
2013-04-06 10:18:00,63.6,52.5,30.12,East,84,2.0,5.0,67,0.00,,---,0.00,VWS V14.01,2013-04-06 15:18:00,
2013-04-06 10:23:00,64.0,52.8,30.12,SE,129,0.0,7.0,67,0.00,,---,0.00,VWS V14.01,2013-04-06 15:23:00,
2013-04-06 10:34:00,64.2,52.2,30.12,NW,322,1.0,10.0,65,0.00,,---,0.00,VWS V14.01,2013-04-06 15:34:00,
2013-04-06 10:36:00,64.5,52.1,30.12,WSW,246,10.0,10.0,64,0.00,,---,0.00,VWS V14.01,2013-04-06 15:36:00,
2013-04-06 10:44:00,66.0,54.7,30.13,West,273,5.0,11.0,67,0.00,,---,0.00,VWS V14.01,2013-04-06 15:44:00,
2013-04-06 10:54:00,65.5,53.0,30.12,SW,227,4.0,11.0,64,0.00,,---,0.00,VWS V14.01,2013-04-06 15:54:00,
2013-04-06 10:59:00,66.0,53.5,30.13,SW,233,4.0,11.0,64,0.00,,---,0.00,VWS V14.01,2013-04-06 15:59:00,
2013-04-06 11:20:00,67.6,52.3,30.12,WSW,241,3.0,11.0,58,0.00,,---,0.00,VWS V14.01,2013-04-06 16:20:00,
2013-04-06 11:25:00,67.0,54.0,30.12,South,178,1.0,11.0,63,0.00,,---,0.00,VWS V14.01,2013-04-06 16:25:00,
2013-04-06 11:30:00,67.3,54.7,30.12,SSW,208,0.0,11.0,64,0.00,,---,0.00,VWS V14.01,2013-04-06 16:30:00,
2013-04-06 11:35:00,68.1,55.0,30.12,ESE,111,3.0,11.0,63,0.00,,---,0.00,VWS V14.01,2013-04-06 16:35:00,
2013-04-06 11:40:00,69.3,55.3,30.12,East,99,1.0,6.0,61,0.00,,---,0.00,VWS V14.01,2013-04-06 16:40:00,
2013-04-06 11:45:00,70.0,55.0,30.12,SW,221,8.0,8.0,59,0.00,,---,0.00,VWS V14.01,2013-04-06 16:45:00,
2013-04-06 11:50:00,69.4,54.5,30.12,WSW,245,4.0,13.0,59,0.00,,---,0.00,VWS V14.01,2013-04-06 16:50:00,
2013-04-06 11:55:00,70.7,55.7,30.11,SSE,148,0.0,13.0,59,0.00,,---,0.00,VWS V14.01,2013-04-06 16:55:00,
2013-04-06 12:00:00,71.0,53.5,30.11,NW,316,1.0,13.0,54,0.00,,---,0.00,VWS V14.01,2013-04-06 17:00:00,
2013-04-06 12:05:00,70.3,53.9,30.11,East,84,6.0,13.0,56,0.00,,---,0.00,VWS V14.01,2013-04-06 17:05:00,
2013-04-06 12:10:00,69.9,52.0,30.11,NE,36,0.0,8.0,53,0.00,,---,0.00,VWS V14.01,2013-04-06 17:10:00,
2013-04-06 12:15:00,69.6,51.7,30.11,SSW,209,0.0,9.0,53,0.00,,---,0.00,VWS V14.01,2013-04-06 17:15:00,
2013-04-06 12:20:00,69.7,51.8,30.11,SW,228,3.0,9.0,53,0.00,,---,0.00,VWS V14.01,2013-04-06 17:20:00,
2013-04-06 12:25:00,70.1,52.2,30.10,SW,228,5.0,9.0,53,0.00,,---,0.00,VWS V14.01,2013-04-06 17:25:00,
2013-04-06 12:30:00,70.9,54.0,30.10,North,5,0.0,9.0,55,0.00,,---,0.00,VWS V14.01,2013-04-06 17:30:00,
2013-04-06 12:35:00,71.8,56.2,30.10,North,9,2.0,10.0,58,0.00,,---,0.00,VWS V14.01,2013-04-06 17:35:00,
2013-04-06 12:40:00,71.8,53.8,30.10,NE,53,2.0,6.0,53,0.00,,---,0.00,VWS V14.01,2013-04-06 17:40:00,
2013-04-06 12:45:00,71.9,52.8,30.10,SSW,207,6.0,15.0,51,0.00,,---,0.00,VWS V14.01,2013-04-06 17:45:00,
2013-04-06 12:50:00,71.5,53.5,30.10,WSW,248,6.0,15.0,53,0.00,,---,0.00,VWS V14.01,2013-04-06 17:50:00,
2013-04-06 12:55:00,72.0,53.4,30.10,SW,232,8.0,15.0,52,0.00,,---,0.00,VWS V14.01,2013-04-06 17:55:00,
2013-04-06 13:00:00,72.4,54.3,30.10,ENE,74,3.0,15.0,53,0.00,,---,0.00,VWS V14.01,2013-04-06 18:00:00,
2013-04-06 13:05:00,73.1,54.5,30.09,NE,53,4.0,15.0,52,0.00,,---,0.00,VWS V14.01,2013-04-06 18:05:00,
2013-04-06 13:06:00,73.1,54.5,30.09,North,360,2.0,15.0,52,0.00,,---,0.00,VWS V14.01,2013-04-06 18:06:00,
2013-04-06 13:15:00,72.8,53.6,30.08,SSW,210,3.0,11.0,51,0.00,,---,0.00,VWS V14.01,2013-04-06 18:15:00,
2013-04-06 13:20:00,73.1,55.5,30.08,SW,229,8.0,11.0,54,0.00,,---,0.00,VWS V14.01,2013-04-06 18:20:00,
2013-04-06 13:25:00,73.1,55.0,30.08,ESE,122,4.0,11.0,53,0.00,,---,0.00,VWS V14.01,2013-04-06 18:25:00,
2013-04-06 13:31:00,73.2,54.5,30.08,NE,48,1.0,11.0,52,0.00,,---,0.00,VWS V14.01,2013-04-06 18:31:00,
2013-04-06 13:36:00,73.5,53.7,30.07,NE,48,2.0,11.0,50,0.00,,---,0.00,VWS V14.01,2013-04-06 18:36:00,
2013-04-06 13:41:00,73.9,53.0,30.07,East,95,2.0,10.0,48,0.00,,---,0.00,VWS V14.01,2013-04-06 18:41:00,
2013-04-06 13:46:00,73.8,53.5,30.07,East,88,1.0,10.0,49,0.00,,---,0.00,VWS V14.01,2013-04-06 18:46:00,
2013-04-06 13:51:00,73.7,55.0,30.07,East,97,3.0,14.0,52,0.00,,---,0.00,VWS V14.01,2013-04-06 18:51:00,
2013-04-06 13:56:00,73.7,53.9,30.06,ENE,71,4.0,14.0,50,0.00,,---,0.00,VWS V14.01,2013-04-06 18:56:00,
2013-04-06 14:01:00,74.1,53.7,30.06,NNW,344,5.0,14.0,49,0.00,,---,0.00,VWS V14.01,2013-04-06 19:01:00,
2013-04-06 14:06:00,74.6,56.4,30.06,NE,50,3.0,14.0,53,0.00,,---,0.00,VWS V14.01,2013-04-06 19:06:00,
2013-04-06 14:21:00,72.9,53.2,30.05,WSW,248,3.0,12.0,50,0.00,,---,0.00,VWS V14.01,2013-04-06 19:21:00,
2013-04-06 14:26:00,73.7,55.0,30.05,ENE,71,4.0,12.0,52,0.00,,---,0.00,VWS V14.01,2013-04-06 19:26:00,
2013-04-06 14:31:00,72.4,52.2,30.04,West,260,3.0,12.0,49,0.00,,---,0.00,VWS V14.01,2013-04-06 19:31:00,
2013-04-06 14:36:00,71.5,53.0,30.05,SSW,194,3.0,3.0,52,0.00,,---,0.00,VWS V14.01,2013-04-06 19:36:00,
2013-04-06 14:41:00,72.0,54.0,30.04,South,173,0.0,5.0,53,0.00,,---,0.00,VWS V14.01,2013-04-06 19:41:00,
2013-04-06 14:46:00,73.9,55.7,30.04,North,355,1.0,7.0,53,0.00,,---,0.00,VWS V14.01,2013-04-06 19:46:00,
2013-04-06 14:51:00,74.8,54.4,30.03,East,89,3.0,7.0,49,0.00,,---,0.00,VWS V14.01,2013-04-06 19:51:00,
2013-04-06 14:56:00,73.9,55.7,30.04,WNW,284,0.0,7.0,53,0.00,,---,0.00,VWS V14.01,2013-04-06 19:56:00,
2013-04-06 15:02:00,74.6,55.3,30.03,NNW,333,2.0,7.0,51,0.00,,---,0.00,VWS V14.01,2013-04-06 20:02:00,
2013-04-06 15:06:00,74.9,56.1,30.03,ESE,110,3.0,9.0,52,0.00,,---,0.00,VWS V14.01,2013-04-06 20:06:00,
2013-04-06 15:07:00,74.8,56.0,30.03,East,98,3.0,3.0,52,0.00,,---,0.00,VWS V14.01,2013-04-06 20:07:00,
2013-04-06 15:12:00,74.4,55.7,30.03,ESE,107,2.0,5.0,52,0.00,,---,0.00,VWS V14.01,2013-04-06 20:12:00,
2013-04-06 15:17:00,74.5,57.3,30.03,WSW,239,6.0,6.0,55,0.00,,---,0.00,VWS V14.01,2013-04-06 20:17:00,
2013-04-06 15:22:00,74.8,56.0,30.03,SSW,205,6.0,10.0,52,0.00,,---,0.00,VWS V14.01,2013-04-06 20:22:00,
2013-04-06 15:27:00,74.4,56.2,30.03,East,88,6.0,10.0,53,0.00,,---,0.00,VWS V14.01,2013-04-06 20:27:00,
2013-04-06 15:32:00,74.2,56.5,30.02,SSE,166,1.0,10.0,54,0.00,,---,0.00,VWS V14.01,2013-04-06 20:32:00,
2013-04-06 15:37:00,74.0,56.3,30.02,SW,218,3.0,9.0,54,0.00,,---,0.00,VWS V14.01,2013-04-06 20:37:00,
2013-04-06 15:42:00,74.8,57.1,30.02,NE,49,2.0,9.0,54,0.00,,---,0.00,VWS V14.01,2013-04-06 20:42:00,
2013-04-06 15:47:00,74.7,56.5,30.01,East,94,0.0,9.0,53,0.00,,---,0.00,VWS V14.01,2013-04-06 20:47:00,
2013-04-06 15:52:00,74.9,57.2,30.01,SW,227,3.0,12.0,54,0.00,,---,0.00,VWS V14.01,2013-04-06 20:52:00,
2013-04-06 15:57:00,74.3,56.6,30.01,SE,146,3.0,12.0,54,0.00,,---,0.00,VWS V14.01,2013-04-06 20:57:00,
2013-04-06 16:02:00,74.7,58.0,30.01,WSW,255,0.0,12.0,56,0.00,,---,0.00,VWS V14.01,2013-04-06 21:02:00,
2013-04-06 16:06:00,75.2,58.4,30.01,SW,233,4.0,12.0,56,0.00,,---,0.00,VWS V14.01,2013-04-06 21:06:00,
2013-04-06 16:07:00,75.2,56.4,30.01,SW,222,4.0,8.0,52,0.00,,---,0.00,VWS V14.01,2013-04-06 21:07:00,
2013-04-06 16:12:00,75.3,57.5,30.00,SW,235,5.0,9.0,54,0.00,,---,0.00,VWS V14.01,2013-04-06 21:12:00,
2013-04-06 16:17:00,75.2,56.4,30.00,NE,34,1.0,9.0,52,0.00,,---,0.00,VWS V14.01,2013-04-06 21:17:00,
2013-04-06 16:22:00,74.7,56.5,30.00,SSE,161,2.0,11.0,53,0.00,,---,0.00,VWS V14.01,2013-04-06 21:22:00,
2013-04-06 16:27:00,74.3,57.1,30.00,SSE,151,2.0,11.0,55,0.00,,---,0.00,VWS V14.01,2013-04-06 21:27:00,
2013-04-06 16:32:00,75.1,57.8,30.00,West,261,3.0,11.0,55,0.00,,---,0.00,VWS V14.01,2013-04-06 21:32:00,
2013-04-06 16:36:00,75.0,55.7,30.00,West,269,2.0,11.0,51,0.00,,---,0.00,VWS V14.01,2013-04-06 21:36:00,
2013-04-06 16:42:00,74.9,56.1,30.00,SW,229,3.0,7.0,52,0.00,,---,0.00,VWS V14.01,2013-04-06 21:42:00,
2013-04-06 16:47:00,74.9,56.1,30.00,WSW,256,5.0,10.0,52,0.00,,---,0.00,VWS V14.01,2013-04-06 21:47:00,
2013-04-06 16:52:00,74.7,55.9,30.00,NE,42,2.0,10.0,52,0.00,,---,0.00,VWS V14.01,2013-04-06 21:52:00,
2013-04-06 16:57:00,73.8,56.1,30.00,ENE,67,2.0,10.0,54,0.00,,---,0.00,VWS V14.01,2013-04-06 21:57:00,
2013-04-06 17:02:00,73.8,55.6,30.00,WSW,256,6.0,11.0,53,0.00,,---,0.00,VWS V14.01,2013-04-06 22:02:00,
2013-04-06 17:06:00,73.9,55.2,30.00,SSW,205,4.0,11.0,52,0.00,,---,0.00,VWS V14.01,2013-04-06 22:06:00,
2013-04-06 17:07:00,73.9,56.7,30.00,East,94,2.0,4.0,55,0.00,,---,0.00,VWS V14.01,2013-04-06 22:07:00,
2013-04-06 17:12:00,73.1,55.5,30.00,SW,215,3.0,8.0,54,0.00,,---,0.00,VWS V14.01,2013-04-06 22:12:00,
2013-04-06 17:17:00,72.6,55.5,30.00,SE,138,1.0,8.0,55,0.00,,---,0.00,VWS V14.01,2013-04-06 22:17:00,
2013-04-06 17:22:00,73.0,56.4,30.00,West,277,5.0,8.0,56,0.00,,---,0.00,VWS V14.01,2013-04-06 22:22:00,
2013-04-06 17:27:00,73.1,56.5,30.00,West,261,2.0,9.0,56,0.00,,---,0.00,VWS V14.01,2013-04-06 22:27:00,
2013-04-06 17:32:00,72.5,55.9,30.00,SW,233,7.0,13.0,56,0.00,,---,0.00,VWS V14.01,2013-04-06 22:32:00,
2013-04-06 17:37:00,72.2,56.1,29.99,South,182,2.0,8.0,57,0.00,,---,0.00,VWS V14.01,2013-04-06 22:37:00,
2013-04-06 17:42:00,72.0,56.4,29.99,SE,136,0.0,8.0,58,0.00,,---,0.00,VWS V14.01,2013-04-06 22:42:00,
2013-04-06 17:47:00,72.1,56.5,29.99,SE,142,0.0,8.0,58,0.00,,---,0.00,VWS V14.01,2013-04-06 22:47:00,
2013-04-06 17:53:00,72.1,56.0,29.99,South,190,0.0,8.0,57,0.00,,---,0.00,VWS V14.01,2013-04-06 22:53:00,
2013-04-06 17:58:00,72.2,56.6,30.00,SSE,165,2.0,8.0,58,0.00,,---,0.00,VWS V14.01,2013-04-06 22:58:00,
2013-04-06 18:03:00,71.7,55.7,29.99,ENE,57,2.0,10.0,57,0.00,,---,0.00,VWS V14.01,2013-04-06 23:03:00,
2013-04-06 18:08:00,71.3,56.2,29.99,SE,144,2.0,5.0,59,0.00,,---,0.00,VWS V14.01,2013-04-06 23:08:00,
2013-04-06 18:13:00,71.0,56.0,29.99,East,99,1.0,11.0,59,0.00,,---,0.00,VWS V14.01,2013-04-06 23:13:00,
2013-04-06 18:18:00,70.6,55.6,29.99,North,10,1.0,11.0,59,0.00,,---,0.00,VWS V14.01,2013-04-06 23:18:00,
2013-04-06 18:23:00,70.4,56.3,29.99,SSE,152,0.0,11.0,61,0.00,,---,0.00,VWS V14.01,2013-04-06 23:23:00,
2013-04-06 18:28:00,70.3,55.8,29.99,East,81,0.0,11.0,60,0.00,,---,0.00,VWS V14.01,2013-04-06 23:28:00,
2013-04-06 18:33:00,70.1,56.0,29.99,SW,218,3.0,11.0,61,0.00,,---,0.00,VWS V14.01,2013-04-06 23:33:00,
2013-04-06 18:38:00,69.6,55.1,29.99,East,81,2.0,5.0,60,0.00,,---,0.00,VWS V14.01,2013-04-06 23:38:00,
2013-04-06 18:43:00,69.1,56.0,29.99,WSW,242,5.0,11.0,63,0.00,,---,0.00,VWS V14.01,2013-04-06 23:43:00,
2013-04-06 18:48:00,68.7,55.2,29.99,WSW,242,4.0,11.0,62,0.00,,---,0.00,VWS V14.01,2013-04-06 23:48:00,
2013-04-06 18:53:00,68.3,55.7,29.99,WNW,287,1.0,11.0,64,0.00,,---,0.00,VWS V14.01,2013-04-06 23:53:00,
2013-04-06 18:58:00,67.9,54.8,29.99,SSE,167,0.0,11.0,63,0.00,,---,0.00,VWS V14.01,2013-04-06 23:58:00,
2013-04-06 19:03:00,67.5,54.5,29.99,West,272,5.0,11.0,63,0.00,,---,0.00,VWS V14.01,2013-04-07 00:03:00,
2013-04-06 19:06:00,67.3,54.7,29.99,WNW,300,3.0,11.0,64,0.00,,---,0.00,VWS V14.01,2013-04-07 00:06:00,
2013-04-06 19:13:00,66.8,54.7,30.00,SSE,147,2.0,12.0,65,0.00,,---,0.00,VWS V14.01,2013-04-07 00:13:00,
2013-04-06 19:18:00,66.3,54.6,30.00,SW,225,4.0,12.0,66,0.00,,---,0.00,VWS V14.01,2013-04-07 00:18:00,
2013-04-06 19:23:00,66.0,54.7,30.00,East,84,0.0,12.0,67,0.00,,---,0.00,VWS V14.01,2013-04-07 00:23:00,
2013-04-06 19:28:00,65.6,54.8,30.00,WSW,246,0.0,12.0,68,0.00,,---,0.00,VWS V14.01,2013-04-07 00:28:00,
2013-04-06 19:33:00,65.4,55.0,30.00,WSW,250,0.0,12.0,69,0.00,,---,0.00,VWS V14.01,2013-04-07 00:33:00,
2013-04-06 19:36:00,65.1,55.1,30.00,North,355,1.0,12.0,70,0.00,,---,0.00,VWS V14.01,2013-04-07 00:36:00,
2013-04-06 19:43:00,64.9,54.9,30.00,SE,146,0.0,5.0,70,0.00,,---,0.00,VWS V14.01,2013-04-07 00:43:00,
2013-04-06 19:48:00,64.6,55.0,30.00,SSW,194,0.0,5.0,71,0.00,,---,0.00,VWS V14.01,2013-04-07 00:48:00,
2013-04-06 19:53:00,64.5,55.3,30.00,SE,125,1.0,6.0,72,0.00,,---,0.00,VWS V14.01,2013-04-07 00:53:00,
2013-04-06 19:58:00,64.5,55.3,30.00,South,171,3.0,6.0,72,0.00,,---,0.00,VWS V14.01,2013-04-07 00:58:00,
2013-04-06 20:03:00,64.4,55.2,30.00,SSE,153,0.0,6.0,72,0.00,,---,0.00,VWS V14.01,2013-04-07 01:03:00,
2013-04-06 20:08:00,64.2,55.0,30.00,SW,227,3.0,3.0,72,0.00,,---,0.00,VWS V14.01,2013-04-07 01:08:00,
2013-04-06 20:13:00,64.2,55.0,30.00,SE,128,0.0,4.0,72,0.00,,---,0.00,VWS V14.01,2013-04-07 01:13:00,
2013-04-06 20:18:00,63.8,55.0,30.00,ENE,71,2.0,4.0,73,0.00,,---,0.00,VWS V14.01,2013-04-07 01:18:00,
2013-04-06 20:23:00,63.5,55.1,30.01,SE,143,2.0,6.0,74,0.00,,---,0.00,VWS V14.01,2013-04-07 01:23:00,
2013-04-06 20:28:00,63.4,55.0,30.01,NE,51,1.0,6.0,74,0.00,,---,0.00,VWS V14.01,2013-04-07 01:28:00,
2013-04-06 20:33:00,63.0,55.0,30.00,East,97,0.0,6.0,75,0.00,,---,0.00,VWS V14.01,2013-04-07 01:33:00,
2013-04-06 20:36:00,62.9,54.9,30.00,North,5,0.0,6.0,75,0.00,,---,0.00,VWS V14.01,2013-04-07 01:36:00,
2013-04-06 20:43:00,62.9,54.9,30.00,North,360,0.0,3.0,75,0.00,,---,0.00,VWS V14.01,2013-04-07 01:43:00,
2013-04-06 20:48:00,62.3,54.7,30.00,North,360,0.0,3.0,76,0.00,,---,0.00,VWS V14.01,2013-04-07 01:48:00,
2013-04-06 20:53:00,62.0,54.7,30.00,NNW,333,1.0,3.0,77,0.00,,---,0.00,VWS V14.01,2013-04-07 01:53:00,
2013-04-06 20:58:00,61.8,54.9,30.01,NW,325,0.0,3.0,78,0.00,,---,0.00,VWS V14.01,2013-04-07 01:58:00,
2013-04-06 21:03:00,61.5,54.9,30.01,NW,323,0.0,3.0,79,0.00,,---,0.00,VWS V14.01,2013-04-07 02:03:00,
2013-04-06 21:06:00,61.6,54.7,30.01,NNE,32,1.0,3.0,78,0.00,,---,0.00,VWS V14.01,2013-04-07 02:06:00,
2013-04-06 21:08:00,61.8,54.9,30.01,SSW,209,0.0,4.0,78,0.00,,---,0.00,VWS V14.01,2013-04-07 02:08:00,
2013-04-06 21:13:00,61.9,55.0,30.01,SSW,209,3.0,6.0,78,0.00,,---,0.00,VWS V14.01,2013-04-07 02:13:00,
2013-04-06 21:18:00,61.9,55.0,30.01,SW,223,1.0,6.0,78,0.00,,---,0.00,VWS V14.01,2013-04-07 02:18:00,
2013-04-06 21:23:00,61.8,54.9,30.02,NNE,28,0.0,6.0,78,0.00,,---,0.00,VWS V14.01,2013-04-07 02:23:00,
2013-04-06 21:28:00,61.6,54.7,30.02,NW,310,2.0,6.0,78,0.00,,---,0.00,VWS V14.01,2013-04-07 02:28:00,
2013-04-06 21:34:00,61.4,54.8,30.02,NNE,32,0.0,6.0,79,0.00,,---,0.00,VWS V14.01,2013-04-07 02:34:00,
2013-04-06 21:39:00,61.4,54.8,30.02,ENE,77,0.0,4.0,79,0.00,,---,0.00,VWS V14.01,2013-04-07 02:39:00,
2013-04-06 21:44:00,61.5,54.9,30.02,NE,34,0.0,4.0,79,0.00,,---,0.00,VWS V14.01,2013-04-07 02:44:00,
2013-04-06 21:49:00,60.9,54.7,30.02,NE,34,1.0,4.0,80,0.00,,---,0.00,VWS V14.01,2013-04-07 02:49:00,
2013-04-06 21:54:00,60.6,54.4,30.02,NNW,345,0.0,4.0,80,0.00,,---,0.00,VWS V14.01,2013-04-07 02:54:00,
2013-04-06 21:59:00,60.6,54.8,30.02,West,276,0.0,4.0,81,0.00,,---,0.00,VWS V14.01,2013-04-07 02:59:00,
2013-04-06 22:04:00,60.4,54.5,30.02,SW,228,0.0,4.0,81,0.00,,---,0.00,VWS V14.01,2013-04-07 03:04:00,
2013-04-06 22:06:00,60.3,54.5,30.02,SW,228,0.0,4.0,81,0.00,,---,0.00,VWS V14.01,2013-04-07 03:06:00,
2013-04-06 22:09:00,60.2,54.4,30.02,SW,228,0.0,0.0,81,0.00,,---,0.00,VWS V14.01,2013-04-07 03:09:00,
2013-04-06 22:14:00,59.9,54.4,30.02,NNW,331,0.0,2.0,82,0.00,,---,0.00,VWS V14.01,2013-04-07 03:14:00,
2013-04-06 22:19:00,59.6,54.1,30.02,West,277,0.0,2.0,82,0.00,,---,0.00,VWS V14.01,2013-04-07 03:19:00,
2013-04-06 22:24:00,59.4,54.2,30.02,West,277,0.0,2.0,83,0.00,,---,0.00,VWS V14.01,2013-04-07 03:24:00,
2013-04-06 22:29:00,59.1,54.3,30.02,West,261,1.0,2.0,84,0.00,,---,0.00,VWS V14.01,2013-04-07 03:29:00,
2013-04-06 22:34:00,59.1,54.3,30.02,North,350,0.0,2.0,84,0.00,,---,0.00,VWS V14.01,2013-04-07 03:34:00,
2013-04-06 22:36:00,59.1,54.3,30.02,North,360,0.0,3.0,84,0.00,,---,0.00,VWS V14.01,2013-04-07 03:36:00,
2013-04-06 22:44:00,59.1,54.3,30.02,North,360,0.0,0.0,84,0.00,,---,0.00,VWS V14.01,2013-04-07 03:44:00,
2013-04-06 22:49:00,58.8,54.0,30.02,NNW,341,0.0,2.0,84,0.00,,---,0.00,VWS V14.01,2013-04-07 03:49:00,
2013-04-06 22:54:00,58.9,54.1,30.02,NNW,343,0.0,3.0,84,0.00,,---,0.00,VWS V14.01,2013-04-07 03:54:00,
2013-04-06 23:05:00,58.5,54.0,30.02,North,355,0.0,3.0,85,0.00,,---,0.00,VWS V14.01,2013-04-07 04:05:00,
2013-04-06 23:10:00,58.5,54.0,30.02,North,355,0.0,1.0,85,0.00,,---,0.00,VWS V14.01,2013-04-07 04:10:00,
2013-04-06 23:15:00,58.2,53.7,30.03,North,355,0.0,1.0,85,0.00,,---,0.00,VWS V14.01,2013-04-07 04:15:00,
2013-04-06 23:20:00,58.1,53.9,30.03,North,355,0.0,1.0,86,0.00,,---,0.00,VWS V14.01,2013-04-07 04:20:00,
2013-04-06 23:25:00,57.9,53.7,30.03,North,355,0.0,1.0,86,0.00,,---,0.00,VWS V14.01,2013-04-07 04:25:00,
2013-04-06 23:30:00,57.8,54.0,30.03,North,355,0.0,1.0,87,0.00,,---,0.00,VWS V14.01,2013-04-07 04:30:00,
2013-04-06 23:35:00,57.9,54.1,30.03,North,355,0.0,1.0,87,0.00,,---,0.00,VWS V14.01,2013-04-07 04:35:00,
2013-04-06 23:40:00,57.8,54.3,30.03,East,83,2.0,3.0,88,0.00,,---,0.00,VWS V14.01,2013-04-07 04:40:00,
2013-04-06 23:45:00,58.0,54.5,30.03,North,351,0.0,3.0,88,0.00,,---,0.00,VWS V14.01,2013-04-07 04:45:00,
2013-04-06 23:50:00,58.0,54.5,30.03,West,281,0.0,3.0,88,0.00,,---,0.00,VWS V14.01,2013-04-07 04:50:00,
2013-04-06 23:55:00,57.8,54.3,30.03,West,261,0.0,4.0,88,0.00,,---,0.00,VWS V14.01,2013-04-07 04:55:00,